When you browse on this site, cookies collect data to enhance your experience and personalize the content and advertising you see.
Visit our Privacy Policy to learn more. By continuing to use the site, you agree to this use of cookies and data.
  • En España
  • Lista de países
  • Para 7 días
  • Temperatura del agua
  • Mapa Satelital
  • El tiempo en el mapa
  • Informadores
  • user-avatar
    Iniciar sesión

    Tiempo cada hora Pokigrov

    Hoy, 22 Abril, Lunes

    Tiempo Temperatura Precipitaciones Viento Presión Humedad
    00:00 +25°C° 0 mm 1 mps 752 mmHg 92%
    01:00 +25°C° 0 mm 1 mps 752 mmHg 93%
    02:00 +24°C° 0 mm 1 mps 752 mmHg 94%
    03:00 +22°C° 0 mm 0 mps 752 mmHg 95%
    04:00 +22°C° 0 mm 0 mps 752 mmHg 96%
    05:00 +22°C° 0 mm 0 mps 752 mmHg 97%
    06:00 +23°C° 0 mm 0 mps 752 mmHg 89%
    07:00 +27°C° 0 mm 1 mps 752 mmHg 82%
    08:00 +29°C° 0 mm 1 mps 753 mmHg 74%
    09:00 +30°C° 0 mm 1 mps 752 mmHg 67%
    10:00 +32°C° 0 mm 1 mps 752 mmHg 59%
    11:00 +34°C° 0 mm 1 mps 752 mmHg 52%
    12:00 +34°C° 0 mm 1 mps 751 mmHg 51%
    13:00 +34°C° 0 mm 1 mps 750 mmHg 50%
    14:00 +35°C° 0 mm 1 mps 750 mmHg 48%
    15:00 +34°C° 0 mm 1 mps 749 mmHg 53%
    16:00 +33°C° 0 mm 1 mps 749 mmHg 57%
    17:00 +32°C° 0 mm 1 mps 749 mmHg 62%
    18:00 +30°C° 0.2 mm 1 mps 750 mmHg 72%
    19:00 +28°C° 0.2 mm 1 mps 750 mmHg 83%
    20:00 +26°C° 0.2 mm 2 mps 751 mmHg 94%
    21:00 +26°C° 0 mm 2 mps 751 mmHg 95%
    22:00 +26°C° 0 mm 1 mps 752 mmHg 95%
    23:00 +25°C° 0 mm 1 mps 752 mmHg 96%

    Mañana, 23 Abril, Martes

    Tiempo Temperatura Precipitaciones Viento Presión Humedad
    00:00 +25°C° 0 mm 1 mps 752 mmHg 97%
    01:00 +25°C° 0 mm 1 mps 751 mmHg 97%
    02:00 +25°C° 0 mm 1 mps 751 mmHg 97%
    03:00 +25°C° 0 mm 1 mps 751 mmHg 98%
    04:00 +23°C° 0 mm 0 mps 751 mmHg 98%
    05:00 +23°C° 0 mm 0 mps 751 mmHg 98%
    06:00 +24°C° 0.6 mm 0 mps 752 mmHg 96%
    07:00 +26°C° 0.6 mm 1 mps 752 mmHg 94%
    08:00 +27°C° 0.6 mm 1 mps 753 mmHg 92%
    09:00 +28°C° 2.4 mm 1 mps 753 mmHg 89%
    10:00 +29°C° 2.4 mm 1 mps 752 mmHg 86%
    11:00 +28°C° 2.4 mm 0 mps 752 mmHg 83%
    12:00 +31°C° 2.3 mm 1 mps 751 mmHg 82%
    13:00 +31°C° 2.3 mm 1 mps 751 mmHg 82%
    14:00 +32°C° 2.3 mm 1 mps 750 mmHg 81%
    15:00 +30°C° 2.6 mm 1 mps 750 mmHg 86%
    16:00 +29°C° 2.6 mm 1 mps 749 mmHg 90%
    17:00 +27°C° 2.6 mm 1 mps 749 mmHg 95%
    18:00 +27°C° 2.3 mm 1 mps 750 mmHg 96%
    19:00 +26°C° 2.3 mm 2 mps 750 mmHg 96%
    20:00 +26°C° 2.3 mm 2 mps 751 mmHg 97%
    21:00 +26°C° 3 mm 2 mps 751 mmHg 97%
    22:00 +26°C° 3 mm 1 mps 752 mmHg 98%
    23:00 +26°C° 3 mm 1 mps 752 mmHg 98%

    Pasado mañana, 24 Abril, Miércoles

    Tiempo Temperatura Precipitaciones Viento Presión Humedad
    00:00 +26°C° 1.3 mm 1 mps 752 mmHg 98%
    01:00 +25°C° 1.3 mm 1 mps 751 mmHg 99%
    02:00 +23°C° 1.3 mm 0 mps 751 mmHg 99%
    03:00 +23°C° 1.4 mm 0 mps 751 mmHg 99%
    04:00 +23°C° 1.4 mm 0 mps 751 mmHg 99%
    05:00 +23°C° 1.4 mm 0 mps 751 mmHg 99%
    06:00 +24°C° 0.6 mm 0 mps 752 mmHg 98%
    07:00 +24°C° 0.6 mm 0 mps 752 mmHg 98%
    08:00 +24°C° 0.6 mm 0 mps 753 mmHg 98%
    09:00 +25°C° 0.5 mm 0 mps 753 mmHg 94%
    10:00 +26°C° 0.5 mm 0 mps 753 mmHg 91%
    11:00 +29°C° 0.5 mm 1 mps 753 mmHg 88%
    12:00 +29°C° 0.9 mm 1 mps 752 mmHg 87%
    13:00 +29°C° 0.9 mm 1 mps 751 mmHg 86%
    14:00 +29°C° 0.9 mm 1 mps 750 mmHg 86%
    15:00 +29°C° 0.9 mm 1 mps 750 mmHg 89%
    16:00 +28°C° 0.9 mm 1 mps 750 mmHg 92%
    17:00 +27°C° 0.9 mm 1 mps 750 mmHg 95%
    18:00 +27°C° 0.8 mm 1 mps 751 mmHg 96%
    19:00 +26°C° 0.8 mm 1 mps 752 mmHg 97%
    20:00 +26°C° 0.8 mm 1 mps 752 mmHg 97%
    21:00 +26°C° 0.8 mm 1 mps 752 mmHg 98%
    22:00 +25°C° 0.8 mm 1 mps 753 mmHg 98%
    23:00 +25°C° 0.8 mm 1 mps 753 mmHg 98%

    25 Abril, Jueves

    Tiempo Temperatura Precipitaciones Viento Presión Humedad
    00:00 +25°C° 0.9 mm 1 mps 752 mmHg 98%
    01:00 +25°C° 0.9 mm 1 mps 752 mmHg 98%
    02:00 +25°C° 0.9 mm 1 mps 751 mmHg 98%
    03:00 +25°C° 0.9 mm 1 mps 752 mmHg 98%
    04:00 +25°C° 0.9 mm 1 mps 752 mmHg 98%
    05:00 +25°C° 0.9 mm 1 mps 752 mmHg 99%
    06:00 +26°C° 0.3 mm 1 mps 753 mmHg 96%
    07:00 +27°C° 0.3 mm 1 mps 753 mmHg 94%
    08:00 +28°C° 0.3 mm 1 mps 754 mmHg 91%
    09:00 +29°C° 0.4 mm 1 mps 754 mmHg 88%
    10:00 +29°C° 0.4 mm 1 mps 753 mmHg 84%
    11:00 +30°C° 0.4 mm 1 mps 753 mmHg 81%
    12:00 +30°C° 1 mm 1 mps 752 mmHg 85%
    13:00 +30°C° 1 mm 1 mps 752 mmHg 88%
    14:00 +29°C° 1 mm 1 mps 751 mmHg 91%
    15:00 +29°C° 0.7 mm 1 mps 751 mmHg 93%
    16:00 +28°C° 0.7 mm 1 mps 751 mmHg 95%
    17:00 +28°C° 0.7 mm 1 mps 751 mmHg 96%
    18:00 +27°C° 0.2 mm 1 mps 751 mmHg 97%
    19:00 +26°C° 0.2 mm 1 mps 752 mmHg 97%
    20:00 +26°C° 0.2 mm 1 mps 753 mmHg 98%
    21:00 +26°C° 0.1 mm 1 mps 753 mmHg 98%
    22:00 +26°C° 0.1 mm 1 mps 753 mmHg 98%
    23:00 +26°C° 0.1 mm 1 mps 754 mmHg 98%

    26 Abril, Viernes

    Tiempo Temperatura Precipitaciones Viento Presión Humedad
    00:00 +25°C° 0 mm 1 mps 753 mmHg 98%
    01:00 +25°C° 0 mm 1 mps 753 mmHg 98%
    02:00 +25°C° 0 mm 1 mps 752 mmHg 98%
    03:00 +25°C° 0 mm 1 mps 752 mmHg 98%
    04:00 +25°C° 0 mm 1 mps 753 mmHg 98%
    05:00 +24°C° 0 mm 1 mps 753 mmHg 97%
    06:00 +25°C° 0 mm 1 mps 753 mmHg 94%
    07:00 +26°C° 0 mm 2 mps 754 mmHg 90%
    08:00 +27°C° 0 mm 2 mps 754 mmHg 86%
    09:00 +29°C° 0 mm 2 mps 754 mmHg 77%
    10:00 +30°C° 0 mm 2 mps 753 mmHg 68%
    11:00 +32°C° 0 mm 2 mps 753 mmHg 60%
    12:00 +32°C° 0 mm 2 mps 752 mmHg 59%
    13:00 +34°C° 0 mm 2 mps 751 mmHg 58%
    14:00 +34°C° 0 mm 2 mps 751 mmHg 57%
    15:00 +32°C° 0 mm 1 mps 751 mmHg 62%
    16:00 +31°C° 0 mm 1 mps 751 mmHg 68%
    17:00 +30°C° 0 mm 1 mps 751 mmHg 74%
    18:00 +29°C° 0 mm 1 mps 751 mmHg 77%
    19:00 +28°C° 0 mm 1 mps 752 mmHg 81%
    20:00 +27°C° 0 mm 2 mps 753 mmHg 85%
    21:00 +26°C° 0 mm 2 mps 753 mmHg 85%
    22:00 +26°C° 0 mm 2 mps 753 mmHg 86%
    23:00 +25°C° 0 mm 2 mps 753 mmHg 87%

    27 Abril, Sábado

    Tiempo Temperatura Precipitaciones Viento Presión Humedad
    00:00 +25°C° 0 mm 2 mps 753 mmHg 88%
    01:00 +25°C° 0 mm 1 mps 752 mmHg 90%
    02:00 +24°C° 0 mm 1 mps 752 mmHg 91%
    03:00 +24°C° 0 mm 1 mps 752 mmHg 92%
    04:00 +24°C° 0 mm 1 mps 752 mmHg 93%
    05:00 +24°C° 0 mm 1 mps 752 mmHg 94%
    06:00 +25°C° 0 mm 1 mps 753 mmHg 87%
    07:00 +27°C° 0 mm 2 mps 754 mmHg 80%
    08:00 +28°C° 0 mm 2 mps 754 mmHg 73%
    09:00 +30°C° 0 mm 2 mps 754 mmHg 67%
    10:00 +31°C° 0 mm 2 mps 753 mmHg 62%
    11:00 +34°C° 0 mm 2 mps 753 mmHg 56%
    12:00 +34°C° 0.1 mm 2 mps 752 mmHg 56%
    13:00 +34°C° 0.1 mm 2 mps 751 mmHg 56%
    14:00 +34°C° 0.1 mm 2 mps 751 mmHg 56%
    15:00 +32°C° 0 mm 1 mps 750 mmHg 61%
    16:00 +32°C° 0 mm 1 mps 750 mmHg 65%
    17:00 +31°C° 0 mm 1 mps 750 mmHg 69%
    18:00 +29°C° 0 mm 1 mps 751 mmHg 75%
    19:00 +28°C° 0 mm 1 mps 751 mmHg 80%
    20:00 +26°C° 0 mm 1 mps 752 mmHg 86%
    21:00 +26°C° 0 mm 1 mps 752 mmHg 87%
    22:00 +26°C° 0 mm 1 mps 752 mmHg 89%
    23:00 +25°C° 0 mm 1 mps 753 mmHg 90%
    Mostrar más